Time,TemperatureF,DewpointF,PressureIn,WindDirection,WindDirectionDegrees,WindSpeedMPH,WindSpeedGustMPH,Humidity,HourlyPrecipIn,Conditions,Clouds,dailyrainin,SoftwareType,DateUTC
2015-07-07 00:00:00,71.1,69.6,29.99,WSW,254,0.0,0.0,95,0.00,,,0.17,Wunderground v.1.13,2015-07-07 04:00:00,
2015-07-07 00:10:00,70.9,69.4,29.99,WSW,254,0.0,0.0,95,0.00,,,0.00,Wunderground v.1.13,2015-07-07 04:10:00,
2015-07-07 00:20:00,70.8,69.3,29.99,WSW,254,0.0,0.0,95,0.00,,,0.00,Wunderground v.1.13,2015-07-07 04:20:00,
2015-07-07 00:30:00,70.6,69.4,29.99,WSW,254,0.0,0.0,96,0.00,,,0.00,Wunderground v.1.13,2015-07-07 04:30:00,
2015-07-07 00:40:00,70.6,69.4,29.99,WSW,254,0.0,0.0,96,0.00,,,0.00,Wunderground v.1.13,2015-07-07 04:40:00,
2015-07-07 00:50:00,70.4,69.2,29.99,WSW,254,0.0,0.0,96,0.00,,,0.00,Wunderground v.1.13,2015-07-07 04:50:00,
2015-07-07 01:00:00,70.3,69.1,29.99,WSW,254,0.0,0.0,96,0.00,,,0.00,Wunderground v.1.13,2015-07-07 05:00:00,
2015-07-07 01:10:00,70.1,68.9,29.99,WSW,254,0.0,0.0,96,0.00,,,0.00,Wunderground v.1.13,2015-07-07 05:10:00,
2015-07-07 01:20:00,69.9,68.7,30.00,WSW,254,0.0,0.0,96,0.00,,,0.00,Wunderground v.1.13,2015-07-07 05:20:00,
2015-07-07 01:30:00,69.8,68.6,30.00,WSW,254,0.0,0.0,96,0.00,,,0.00,Wunderground v.1.13,2015-07-07 05:30:00,
2015-07-07 01:40:00,69.8,69.2,30.00,WSW,254,0.0,0.0,98,0.00,,,0.00,Wunderground v.1.13,2015-07-07 05:40:00,
2015-07-07 01:50:00,69.6,69.0,30.00,WSW,254,0.0,0.0,98,0.00,,,0.00,Wunderground v.1.13,2015-07-07 05:50:00,
2015-07-07 02:00:00,69.4,68.8,30.00,WSW,254,0.0,0.0,98,0.00,,,0.00,Wunderground v.1.13,2015-07-07 06:00:00,
2015-07-07 02:10:00,69.3,68.7,30.00,WSW,254,0.0,0.0,98,0.00,,,0.00,Wunderground v.1.13,2015-07-07 06:10:00,
2015-07-07 02:20:00,69.1,68.5,30.00,WSW,254,0.0,0.0,98,0.00,,,0.00,Wunderground v.1.13,2015-07-07 06:20:00,
2015-07-07 02:30:00,68.9,68.3,30.00,WSW,254,0.0,0.0,98,0.00,,,0.00,Wunderground v.1.13,2015-07-07 06:30:00,
2015-07-07 02:40:00,68.9,68.3,30.00,WSW,254,0.0,0.0,98,0.00,,,0.00,Wunderground v.1.13,2015-07-07 06:40:00,
2015-07-07 02:50:00,68.8,68.2,30.01,WSW,254,0.0,0.0,98,0.00,,,0.00,Wunderground v.1.13,2015-07-07 06:50:00,
2015-07-07 03:00:00,68.6,68.0,30.01,WSW,254,0.0,0.0,98,0.00,,,0.00,Wunderground v.1.13,2015-07-07 07:00:00,
2015-07-07 03:10:00,68.6,68.0,30.00,WSW,254,0.0,0.0,98,0.00,,,0.00,Wunderground v.1.13,2015-07-07 07:10:00,
2015-07-07 03:30:00,69.1,68.5,30.00,WSW,254,0.0,0.0,98,0.00,,,0.00,Wunderground v.1.13,2015-07-07 07:30:00,
2015-07-07 03:40:00,69.1,68.5,30.01,WSW,254,0.0,0.0,98,0.00,,,0.00,Wunderground v.1.13,2015-07-07 07:40:00,
2015-07-07 03:50:00,68.9,68.3,30.00,WSW,254,0.0,0.0,98,0.00,,,0.00,Wunderground v.1.13,2015-07-07 07:50:00,
2015-07-07 04:00:00,68.9,68.3,30.00,WSW,254,0.0,0.0,98,0.00,,,0.00,Wunderground v.1.13,2015-07-07 08:00:00,
2015-07-07 04:10:00,68.8,68.2,30.01,WSW,254,0.0,0.0,98,0.00,,,0.00,Wunderground v.1.13,2015-07-07 08:10:00,
2015-07-07 04:20:00,68.8,68.2,30.01,WSW,254,0.0,0.0,98,0.00,,,0.00,Wunderground v.1.13,2015-07-07 08:20:00,
2015-07-07 04:30:00,68.8,68.2,30.01,WSW,254,0.0,0.0,98,0.00,,,0.00,Wunderground v.1.13,2015-07-07 08:30:00,
2015-07-07 04:40:00,68.8,68.2,30.01,WSW,254,0.0,0.0,98,0.00,,,0.00,Wunderground v.1.13,2015-07-07 08:40:00,
2015-07-07 04:50:00,68.6,68.0,30.01,WSW,254,0.0,0.0,98,0.00,,,0.00,Wunderground v.1.13,2015-07-07 08:50:00,
2015-07-07 05:00:00,68.6,68.0,30.01,WSW,254,0.0,0.0,98,0.00,,,0.00,Wunderground v.1.13,2015-07-07 09:00:00,
2015-07-07 05:10:00,68.4,67.8,30.01,WSW,254,0.0,0.0,98,0.00,,,0.00,Wunderground v.1.13,2015-07-07 09:10:00,
2015-07-07 05:20:00,68.3,67.7,30.01,WSW,254,0.0,0.0,98,0.00,,,0.00,Wunderground v.1.13,2015-07-07 09:20:00,
2015-07-07 05:30:00,68.1,67.8,30.01,WSW,254,0.0,0.0,99,0.00,,,0.00,Wunderground v.1.13,2015-07-07 09:30:00,
2015-07-07 05:40:00,67.9,67.6,30.01,WSW,254,0.0,0.0,99,0.00,,,0.00,Wunderground v.1.13,2015-07-07 09:40:00,
2015-07-07 05:50:00,67.9,67.6,30.01,WSW,254,0.0,0.0,99,0.00,,,0.00,Wunderground v.1.13,2015-07-07 09:50:00,
2015-07-07 06:00:00,67.8,67.5,30.01,WSW,254,0.0,0.0,99,0.00,,,0.00,Wunderground v.1.13,2015-07-07 10:00:00,
2015-07-07 06:10:00,67.8,67.5,30.01,WSW,254,0.0,0.0,99,0.00,,,0.00,Wunderground v.1.13,2015-07-07 10:10:00,
2015-07-07 06:20:00,67.8,67.5,30.02,WSW,254,0.0,0.0,99,0.00,,,0.00,Wunderground v.1.13,2015-07-07 10:20:00,
2015-07-07 06:30:00,67.8,67.5,30.02,WSW,254,0.0,0.0,99,0.00,,,0.00,Wunderground v.1.13,2015-07-07 10:30:00,
2015-07-07 06:40:00,67.8,67.5,30.03,WSW,254,0.0,0.0,99,0.00,,,0.00,Wunderground v.1.13,2015-07-07 10:40:00,
2015-07-07 06:50:00,67.8,67.5,30.03,WSW,254,0.0,0.0,99,0.00,,,0.00,Wunderground v.1.13,2015-07-07 10:50:00,
2015-07-07 07:00:00,68.1,67.8,30.03,WSW,254,0.0,0.0,99,0.00,,,0.00,Wunderground v.1.13,2015-07-07 11:00:00,
2015-07-07 07:10:00,68.3,68.0,30.03,WSW,254,0.0,0.0,99,0.00,,,0.00,Wunderground v.1.13,2015-07-07 11:10:00,
2015-07-07 07:20:00,68.6,68.3,30.04,WSW,254,0.0,0.0,99,0.00,,,0.00,Wunderground v.1.13,2015-07-07 11:20:00,
2015-07-07 07:30:00,68.9,68.6,30.04,WSW,254,0.0,0.0,99,0.00,,,0.00,Wunderground v.1.13,2015-07-07 11:30:00,
2015-07-07 07:40:00,69.3,69.0,30.04,WSW,254,0.0,0.0,99,0.00,,,0.00,Wunderground v.1.13,2015-07-07 11:40:00,
2015-07-07 07:50:00,69.8,69.5,30.05,WSW,254,0.0,0.0,99,0.00,,,0.00,Wunderground v.1.13,2015-07-07 11:50:00,
2015-07-07 08:00:00,70.1,69.8,30.05,WSW,254,0.0,0.0,99,0.00,,,0.00,Wunderground v.1.13,2015-07-07 12:00:00,
2015-07-07 08:10:00,70.3,70.0,30.05,WSW,254,0.0,0.0,99,0.00,,,0.00,Wunderground v.1.13,2015-07-07 12:10:00,
2015-07-07 08:30:00,70.8,70.5,30.05,WSW,254,0.0,0.0,99,0.00,,,0.00,Wunderground v.1.13,2015-07-07 12:30:00,
2015-07-07 08:40:00,71.3,71.0,30.05,WSW,254,0.0,0.0,99,0.00,,,0.00,Wunderground v.1.13,2015-07-07 12:40:00,
2015-07-07 08:50:00,71.8,71.5,30.05,WSW,254,0.0,0.0,99,0.00,,,0.00,Wunderground v.1.13,2015-07-07 12:50:00,
2015-07-07 09:00:00,72.5,71.9,30.05,WSW,254,0.0,0.0,98,0.00,,,0.00,Wunderground v.1.13,2015-07-07 13:00:00,
2015-07-07 09:10:00,73.0,71.8,30.05,WSW,254,0.0,0.0,96,0.00,,,0.00,Wunderground v.1.13,2015-07-07 13:10:00,
2015-07-07 09:20:00,73.9,71.7,30.05,WSW,254,0.0,0.0,93,0.00,,,0.00,Wunderground v.1.13,2015-07-07 13:20:00,
2015-07-07 09:30:00,74.6,71.1,30.05,WSW,254,0.0,0.0,89,0.00,,,0.00,Wunderground v.1.13,2015-07-07 13:30:00,
2015-07-07 09:40:00,75.6,71.1,30.05,WSW,254,0.0,0.0,86,0.00,,,0.00,Wunderground v.1.13,2015-07-07 13:40:00,
2015-07-07 09:50:00,76.7,70.8,30.05,WSW,254,0.0,0.0,82,0.00,,,0.00,Wunderground v.1.13,2015-07-07 13:50:00,
2015-07-07 10:00:00,77.7,71.4,30.05,WSW,244,0.0,0.0,81,0.00,,,0.00,Wunderground v.1.13,2015-07-07 14:00:00,
2015-07-07 10:10:00,78.6,71.9,30.05,WSW,240,0.0,0.0,80,0.00,,,0.00,Wunderground v.1.13,2015-07-07 14:10:00,
2015-07-07 10:20:00,79.2,71.4,30.04,WSW,240,0.0,0.0,77,0.00,,,0.00,Wunderground v.1.13,2015-07-07 14:20:00,
2015-07-07 10:30:00,80.3,72.8,30.04,WSW,240,0.0,0.0,78,0.00,,,0.00,Wunderground v.1.13,2015-07-07 14:30:00,
2015-07-07 10:40:00,81.2,71.7,30.04,WSW,239,0.0,2.0,73,0.00,,,0.00,Wunderground v.1.13,2015-07-07 14:40:00,
2015-07-07 10:50:00,82.0,72.1,30.04,SSW,212,0.0,0.0,72,0.00,,,0.00,Wunderground v.1.13,2015-07-07 14:50:00,
2015-07-07 11:00:00,82.8,72.8,30.04,SSW,212,0.0,0.0,72,0.00,,,0.00,Wunderground v.1.13,2015-07-07 15:00:00,
2015-07-07 11:10:00,83.0,72.6,30.05,SSW,206,0.0,0.0,71,0.00,,,0.00,Wunderground v.1.13,2015-07-07 15:10:00,
2015-07-07 11:20:00,83.4,73.0,30.05,SW,227,0.0,1.0,71,0.00,,,0.00,Wunderground v.1.13,2015-07-07 15:20:00,
2015-07-07 11:30:00,83.6,72.8,30.05,SE,141,0.0,0.0,70,0.00,,,0.00,Wunderground v.1.13,2015-07-07 15:30:00,
2015-07-07 11:40:00,84.0,72.3,30.05,SE,141,0.0,0.0,68,0.00,,,0.00,Wunderground v.1.13,2015-07-07 15:40:00,
2015-07-07 11:50:00,84.7,74.3,30.04,SE,141,0.0,0.0,71,0.00,,,0.00,Wunderground v.1.13,2015-07-07 15:50:00,
2015-07-07 12:00:00,85.1,72.0,30.04,SE,141,0.0,0.0,65,0.00,,,0.00,Wunderground v.1.13,2015-07-07 16:00:00,
2015-07-07 12:10:00,84.9,72.3,30.04,SE,141,0.0,0.0,66,0.00,,,0.00,Wunderground v.1.13,2015-07-07 16:10:00,
2015-07-07 12:20:00,85.7,72.1,30.03,SE,141,0.0,1.0,64,0.00,,,0.00,Wunderground v.1.13,2015-07-07 16:20:00,
2015-07-07 12:30:00,85.9,72.8,30.03,SE,141,0.0,0.0,65,0.00,,,0.00,Wunderground v.1.13,2015-07-07 16:30:00,
2015-07-07 12:40:00,85.9,73.7,30.03,SE,141,0.0,0.0,67,0.00,,,0.00,Wunderground v.1.13,2015-07-07 16:40:00,
2015-07-07 12:50:00,86.1,73.4,30.03,SSE,155,0.0,0.0,66,0.00,,,0.00,Wunderground v.1.13,2015-07-07 16:50:00,
2015-07-07 13:00:00,86.3,72.7,30.03,SSE,157,0.0,0.0,64,0.00,,,0.00,Wunderground v.1.13,2015-07-07 17:00:00,
2015-07-07 13:10:00,86.3,74.9,30.03,SSE,148,0.0,0.0,69,0.00,,,0.00,Wunderground v.1.13,2015-07-07 17:10:00,
2015-07-07 13:20:00,86.5,74.7,30.03,South,184,0.0,0.0,68,0.00,,,0.00,Wunderground v.1.13,2015-07-07 17:20:00,
2015-07-07 13:30:00,86.7,72.6,30.03,SW,220,0.0,0.0,63,0.00,,,0.00,Wunderground v.1.13,2015-07-07 17:30:00,
2015-07-07 13:40:00,87.0,74.3,30.03,SW,220,0.0,0.0,66,0.00,,,0.00,Wunderground v.1.13,2015-07-07 17:40:00,
2015-07-07 13:50:00,87.0,72.4,30.02,SSW,213,0.0,0.0,62,0.00,,,0.00,Wunderground v.1.13,2015-07-07 17:50:00,
2015-07-07 14:00:00,86.7,73.5,30.02,SSW,213,0.0,0.0,65,0.00,,,0.00,Wunderground v.1.13,2015-07-07 18:00:00,
2015-07-07 14:10:00,87.0,75.6,30.02,SW,216,0.0,0.0,69,0.00,,,0.00,Wunderground v.1.13,2015-07-07 18:10:00,
2015-07-07 14:20:00,87.8,72.7,30.02,SSW,195,0.0,0.0,61,0.00,,,0.00,Wunderground v.1.13,2015-07-07 18:20:00,
2015-07-07 14:30:00,87.6,73.4,30.02,WSW,256,0.0,0.0,63,0.00,,,0.00,Wunderground v.1.13,2015-07-07 18:30:00,
2015-07-07 14:40:00,87.6,72.5,30.02,WSW,241,0.0,0.0,61,0.00,,,0.00,Wunderground v.1.13,2015-07-07 18:40:00,
2015-07-07 14:50:00,87.8,75.0,30.01,SW,234,0.0,0.0,66,0.00,,,0.00,Wunderground v.1.13,2015-07-07 18:50:00,
2015-07-07 15:00:00,87.8,74.6,30.01,SW,219,0.0,0.0,65,0.00,,,0.00,Wunderground v.1.13,2015-07-07 19:00:00,
2015-07-07 15:10:00,87.4,72.8,30.01,ESE,109,0.0,0.0,62,0.00,,,0.00,Wunderground v.1.13,2015-07-07 19:10:00,
2015-07-07 15:20:00,87.6,73.4,30.01,WNW,294,0.0,1.0,63,0.00,,,0.00,Wunderground v.1.13,2015-07-07 19:20:00,
2015-07-07 15:30:00,87.6,74.8,30.01,WSW,239,0.0,0.0,66,0.00,,,0.00,Wunderground v.1.13,2015-07-07 19:30:00,
2015-07-07 15:40:00,87.6,75.3,30.00,SW,229,0.0,0.0,67,0.00,,,0.00,Wunderground v.1.13,2015-07-07 19:40:00,
2015-07-07 15:50:00,87.4,73.3,30.00,SW,229,0.0,0.0,63,0.00,,,0.00,Wunderground v.1.13,2015-07-07 19:50:00,
2015-07-07 16:00:00,87.0,73.3,30.00,SW,224,0.0,0.0,64,0.00,,,0.00,Wunderground v.1.13,2015-07-07 20:00:00,
2015-07-07 16:10:00,86.7,72.1,30.00,SW,219,0.0,0.0,62,0.00,,,0.00,Wunderground v.1.13,2015-07-07 20:10:00,
2015-07-07 16:20:00,87.0,73.8,29.99,NW,312,0.0,1.0,65,0.00,,,0.00,Wunderground v.1.13,2015-07-07 20:20:00,
2015-07-07 16:30:00,87.0,72.9,29.99,South,182,0.0,0.0,63,0.00,,,0.00,Wunderground v.1.13,2015-07-07 20:30:00,
2015-07-07 16:40:00,87.0,73.3,29.99,South,184,0.0,0.0,64,0.00,,,0.00,Wunderground v.1.13,2015-07-07 20:40:00,
2015-07-07 16:50:00,86.3,72.7,29.99,South,184,0.0,0.0,64,0.00,,,0.00,Wunderground v.1.13,2015-07-07 20:50:00,
2015-07-07 17:00:00,86.1,73.4,29.99,South,182,0.0,0.0,66,0.00,,,0.00,Wunderground v.1.13,2015-07-07 21:00:00,
2015-07-07 17:10:00,85.7,72.6,29.99,South,184,0.0,0.0,65,0.00,,,0.00,Wunderground v.1.13,2015-07-07 21:10:00,
2015-07-07 17:20:00,85.7,73.5,29.99,South,184,0.0,0.0,67,0.00,,,0.00,Wunderground v.1.13,2015-07-07 21:20:00,
2015-07-07 17:30:00,85.5,73.3,29.99,South,184,0.0,0.0,67,0.00,,,0.00,Wunderground v.1.13,2015-07-07 21:30:00,
2015-07-07 17:40:00,85.3,74.0,29.98,SSE,152,0.0,0.0,69,0.00,,,0.00,Wunderground v.1.13,2015-07-07 21:40:00,
2015-07-07 17:50:00,84.9,74.0,29.98,SSE,152,0.0,0.0,70,0.00,,,0.00,Wunderground v.1.13,2015-07-07 21:50:00,
2015-07-07 18:00:00,84.7,73.8,29.98,ESE,120,0.0,0.0,70,0.00,,,0.00,Wunderground v.1.13,2015-07-07 22:00:00,
2015-07-07 18:10:00,84.5,73.2,29.98,ESE,120,0.0,0.0,69,0.00,,,0.00,Wunderground v.1.13,2015-07-07 22:10:00,
2015-07-07 18:20:00,84.3,73.0,29.98,ESE,120,0.0,0.0,69,0.00,,,0.00,Wunderground v.1.13,2015-07-07 22:20:00,
2015-07-07 18:30:00,84.1,73.7,29.98,ESE,120,0.0,0.0,71,0.00,,,0.00,Wunderground v.1.13,2015-07-07 22:30:00,
2015-07-07 18:40:00,84.1,74.1,29.98,ESE,120,0.0,0.0,72,0.00,,,0.00,Wunderground v.1.13,2015-07-07 22:40:00,
2015-07-07 18:50:00,84.0,74.4,29.98,ESE,120,0.0,0.0,73,0.00,,,0.00,Wunderground v.1.13,2015-07-07 22:50:00,
2015-07-07 19:00:00,83.6,74.8,29.98,ESE,120,0.0,0.0,75,0.00,,,0.00,Wunderground v.1.13,2015-07-07 23:00:00,
2015-07-07 19:10:00,83.2,74.4,29.98,ESE,120,0.0,0.0,75,0.00,,,0.00,Wunderground v.1.13,2015-07-07 23:10:00,
2015-07-07 19:20:00,83.0,74.3,29.98,ESE,120,0.0,0.0,75,0.00,,,0.00,Wunderground v.1.13,2015-07-07 23:20:00,
2015-07-07 19:30:00,82.6,74.7,29.98,ESE,120,0.0,0.0,77,0.00,,,0.00,Wunderground v.1.13,2015-07-07 23:30:00,
2015-07-07 19:40:00,82.0,75.2,29.98,ESE,120,0.0,0.0,80,0.00,,,0.00,Wunderground v.1.13,2015-07-07 23:40:00,
2015-07-07 19:50:00,81.4,75.4,29.98,ESE,120,0.0,0.0,82,0.00,,,0.00,Wunderground v.1.13,2015-07-07 23:50:00,
2015-07-07 20:00:00,80.9,74.9,29.98,ESE,120,0.0,0.0,82,0.00,,,0.00,Wunderground v.1.13,2015-07-08 00:00:00,
2015-07-07 20:10:00,80.5,74.5,29.98,ESE,120,0.0,0.0,82,0.00,,,0.00,Wunderground v.1.13,2015-07-08 00:10:00,
2015-07-07 20:20:00,80.1,74.5,29.98,ESE,120,0.0,0.0,83,0.00,,,0.00,Wunderground v.1.13,2015-07-08 00:20:00,
2015-07-07 20:30:00,79.6,74.7,29.98,ESE,120,0.0,0.0,85,0.00,,,0.00,Wunderground v.1.13,2015-07-08 00:30:00,
2015-07-07 20:40:00,79.0,74.5,29.98,ESE,120,0.0,0.0,86,0.00,,,0.00,Wunderground v.1.13,2015-07-08 00:40:00,
2015-07-07 20:50:00,78.5,74.3,29.98,ESE,120,0.0,0.0,87,0.00,,,0.00,Wunderground v.1.13,2015-07-08 00:50:00,